Location: Saint Louis
(38.6270°N, 90.1980°W)
Time: 14:46:12
(UTC-05:00)

ISS - Pass Details

Date: 25 July 2013
Orbit: 402 x 406 km, 51.6° (Epoch: 25 August)

Event Time Altitude Azimuth Distance (km) Brightness Sun altitude
Rises 03:16:00 0° 318° (NW) 2,320 0.7 -24.4°
Reaches altitude 10° 03:19:10 10° 352° (N) 1,467 0.1 -24.1°
Maximum altitude 03:20:31 12° 16° (NNE) 1,357 0.2 -24.0°
Drops below altitude 10° 03:21:52 10° 40° (NE) 1,476 0.6 -23.8°
Sets 03:25:05 0° 74° (ENE) 2,354 1.3 -23.4°
